If you wish to contribute or participate in the discussions about articles you are invited to join SKYbrary as a registered user

GCGM

From SKYbrary Wiki

Revision as of 19:01, 28 November 2011 by Timo.Kouwenhoven (Talk | contribs)
(diff) ← Older revision | Latest revision (diff) | Newer revision → (diff)
Jump to: navigation, search
Airport
ICAO: GCGM
Summary
Name La Gomera
Region Europe
Territory Canary Islands ES.gif
Location San Sebastián de la Gomera
Main city served
Elevation
Coordinates 28° 1' 50" N, 17° 12' 45" W
More airports
in GC
GCFV, GCGM, GCHI, GCLA, GCLP, GCRR, GCTS, GCXO
Runways
Designator Length Width Surface
9/27 1500 m4,921.26 ft 30 m98.425 ft ASP


METAR
Observation GCGM 140800Z VRB01KT 9999 FEW030 20/14 Q1020 RMK CAB09 VRB01KT
Station La Gomera
Elevation 0 metres
Date/Time 14 October 2014 08:00:00
Wind direction °
Wind speed 01 kts
Clouds few clouds
Clouds code FEW
Temperature 20°C
Dew point 14°C
Humidity 68%
QNH 1020 hPa
Weather condition n/a


WX
Tag(s) Volcanic Ash

La Gomera Airport (IATA: GMZ) is an airport located near the village of Alajeró, Spain, 34 km18.359 nm
34,000 m
111,548.557 ft
southwest by road from the Gomera island's capital city, San Sebastián de la Gomera.

Personal tools